TimeHST,TemperatureF,Dew PointF,Humidity,Sea Level PressureIn,VisibilityMPH,Wind Direction,Wind SpeedMPH,Gust SpeedMPH,PrecipitationIn,Events,Conditions,WindDirDegrees,DateUTC
12:56 AM,66.9,63.0,87,30.06,10.0,ENE,11.5,-,N/A,,Clear,70,2013-02-07 10:56:00
1:56 AM,64.9,61.9,90,30.04,10.0,ENE,10.4,-,N/A,,Clear,60,2013-02-07 11:56:00
2:56 AM,63.9,61.0,90,30.03,10.0,NE,9.2,-,N/A,,Clear,40,2013-02-07 12:56:00
3:56 AM,64.9,61.9,90,30.04,10.0,NE,5.8,-,N/A,,Clear,50,2013-02-07 13:56:00
4:56 AM,64.9,61.9,90,30.03,10.0,North,3.5,-,N/A,,Clear,10,2013-02-07 14:56:00
5:56 AM,64.9,61.0,87,30.06,10.0,Variable,3.5,-,N/A,,Clear,0,2013-02-07 15:56:00
6:56 AM,64.9,59.9,84,30.08,10.0,East,5.8,-,N/A,,Clear,80,2013-02-07 16:56:00
7:56 AM,66.9,63.9,90,30.10,10.0,NNE,4.6,-,N/A,,Clear,30,2013-02-07 17:56:00
8:13 AM,68.0,62.6,83,30.15,10.0,NE,3.5,-,N/A,,Scattered Clouds,50,2013-02-07 18:13:00
8:25 AM,69.8,64.4,83,30.15,10.0,ENE,4.6,-,N/A,,Mostly Cloudy,70,2013-02-07 18:25:00
8:37 AM,71.6,64.4,78,30.14,10.0,NE,6.9,-,N/A,,Scattered Clouds,50,2013-02-07 18:37:00
8:56 AM,72.0,63.0,73,30.10,10.0,Calm,Calm,-,N/A,,Clear,0,2013-02-07 18:56:00
9:56 AM,74.8,63.9,69,30.11,10.0,Variable,3.5,-,N/A,,Clear,0,2013-02-07 19:56:00
10:21 AM,75.2,62.6,65,30.16,10.0,Variable,3.5,-,N/A,,Mostly Cloudy,0,2013-02-07 20:21:00
10:56 AM,77.0,63.9,64,30.10,10.0,Variable,3.5,-,N/A,,Mostly Cloudy,0,2013-02-07 20:56:00
11:27 AM,80.6,66.2,61,30.15,10.0,West,4.6,-,N/A,,Scattered Clouds,260,2013-02-07 21:27:00
11:37 AM,80.6,64.4,58,30.14,10.0,Variable,3.5,-,N/A,,Mostly Cloudy,0,2013-02-07 21:37:00
11:56 AM,79.9,65.8,62,30.08,10.0,Variable,6.9,-,N/A,,Mostly Cloudy,0,2013-02-07 21:56:00
12:56 PM,77.0,64.9,66,30.06,10.0,NNW,5.8,-,N/A,,Mostly Cloudy,330,2013-02-07 22:56:00
1:56 PM,75.2,64.4,69,30.09,10.0,West,5.8,-,N/A,,Mostly Cloudy,280,2013-02-07 23:56:00
2:07 PM,75.2,64.4,69,30.09,10.0,WNW,6.9,-,N/A,,Mostly Cloudy,290,2013-02-08 00:07:00
2:42 PM,78.8,64.4,61,30.08,10.0,West,8.1,-,N/A,,Mostly Cloudy,280,2013-02-08 00:42:00
2:56 PM,75.9,63.9,66,30.04,10.0,West,8.1,-,N/A,,Mostly Cloudy,280,2013-02-08 00:56:00
3:35 PM,75.2,64.4,69,30.08,10.0,WNW,8.1,-,0.00,Rain,Light Rain,300,2013-02-08 01:35:00
3:56 PM,72.9,63.9,73,30.03,10.0,NW,5.8,-,0.00,,Overcast,310,2013-02-08 01:56:00
4:34 PM,75.2,64.4,69,30.07,10.0,NNE,13.8,-,N/A,,Scattered Clouds,30,2013-02-08 02:34:00
4:56 PM,74.8,63.9,69,30.03,10.0,NE,16.1,-,N/A,,Clear,40,2013-02-08 02:56:00
5:56 PM,72.0,63.9,76,30.04,10.0,NE,17.3,-,N/A,,Clear,40,2013-02-08 03:56:00
6:56 PM,68.9,63.9,84,30.07,10.0,NE,18.4,-,N/A,,Clear,50,2013-02-08 04:56:00
7:56 PM,68.0,63.9,87,30.09,10.0,NE,12.7,-,N/A,,Clear,50,2013-02-08 05:56:00
8:56 PM,68.0,63.9,87,30.11,10.0,NNE,15.0,-,N/A,,Clear,30,2013-02-08 06:56:00
9:56 PM,66.9,63.0,87,30.11,10.0,NE,10.4,-,N/A,,Partly Cloudy,50,2013-02-08 07:56:00
10:56 PM,66.2,64.4,94,30.16,10.0,NE,9.2,-,N/A,,Clear,40,2013-02-08 08:56:00
11:56 PM,65.8,63.0,90,30.10,10.0,NNE,8.1,-,N/A,,Clear,30,2013-02-08 09:56:00